Regional Weather Roundup
Issued by NWS

Home | Current Version | Previous Version | Graphics & Text | Print | Product List | Glossary On
Versions: 1 2 3 4 5 6 7 8 9 10 11 12 13 14 15 16 17 18 19 20 21 22 23 24 25 26 27 28 29 30 31 32 33 34 35 36 37 38 39 40 41 42 43 44 45 46 47 48 49 50
000
ASUS45 KBOI 210510
RWRID
WEATHER ROUNDUP FOR IDAHO
NATIONAL WEATHER SERVICE BOISE ID
1000 PM MST SAT DEC 20 2014

NOTE: "FAIR" INDICATES FEW OR NO CLOUDS BELOW 12000 FEET
WITH NO SIGNIFICANT WEATHER AND/OR OBSTRUCTIONS TO VISIBILITY

IDZ012-014-210600-
SOUTHWEST IDAHO


CITY           SKY/WX    TMP DP  RH WIND       PRES   REMARKS
BOISE          LGT RAIN  41  37  86 SE13      29.90F
CALDWELL       CLOUDY    43  36  75 NE13      29.90F
MOUNTAIN HOME  LGT RAIN  41  39  95 E13       29.92F
$$

IDZ016-017-210600-
SOUTHCENTRAL IDAHO


CITY           SKY/WX    TMP DP  RH WIND       PRES   REMARKS
BURLEY         LGT RAIN  39  35  86 W8        29.97R WCI  33
JEROME         LGT RAIN  38  36  92 SW6       29.97F WCI  33
TWIN FALLS     LGT RAIN  41  36  82 S17       29.95F
$$

IDZ019>023-210600-
SOUTHEAST IDAHO


CITY           SKY/WX    TMP DP  RH WIND       PRES   REMARKS
IDAHO FALLS    LGT RAIN  36  34  92 SW16      29.94S WCI  26
POCATELLO      LGT RAIN  38  35  89 S15       29.97R WCI  29
REXBURG        FLURRIES  34  33  96 S12       29.91F WCI  25
$$

IDZ006-010-011-018-031-032-210600-
CENTRAL IDAHO MOUNTAINS


CITY           SKY/WX    TMP DP  RH WIND       PRES   REMARKS
MCCALL         LGT SNOW  32  32 100 S5        29.81S FOG     WCI  27
HAILEY         LGT SNOW  32  32 100 SE8       29.94S WCI  25
STANLEY          N/A     33  29  85 SE9       29.85F WCI  25
SALMON         CLOUDY    37  30  75 S13       29.79F WCI  29
CHALLIS        CLOUDY    31  27  85 CALM      29.82F
$$

IDZ002-004-006-007-026-210600-
NORTHERN IDAHO


CITY           SKY/WX    TMP DP  RH WIND       PRES   REMARKS
LEWISTON       LGT RAIN  45  40  82 SE9       29.64F
LOWELL           N/A     39  38  96 NW5       29.75F
COEUR D`ALENE  CLOUDY    39  36  87 S7        29.56F WCI  34
MULLAN PASS    SNOW      30  27  88 S8        29.56F VSB 1/2 WCI  22
$$


USA.gov is the U.S. government's official web portal to all federal, state and local government web resources and services.